When you browse on this site, cookies collect data to enhance your experience and personalize the content and advertising you see.
Visit our Privacy Policy to learn more. By continuing to use the site, you agree to this use of cookies and data.
  • In United Kingdom
  • List of Countries
  • For 7 days
  • Water Temperature
  • Weather Map
  • Weather Widgets
  • user-avatar
    Login

    Hourly Weather Kabwe

    Today, 17 September, Tuesday

    Time Temperature Precipitation Wind Pressure Humidity
    00:00 +19°C° 0 mm 3 mps 663 mmHg 44%
    01:00 +19°C° 0 mm 3 mps 662 mmHg 46%
    02:00 +19°C° 0 mm 3 mps 662 mmHg 51%
    03:00 +18°C° 0 mm 3 mps 662 mmHg 54%
    04:00 +18°C° 0 mm 3 mps 662 mmHg 58%
    05:00 +17°C° 0 mm 3 mps 662 mmHg 61%
    06:00 +19°C° 0 mm 3 mps 663 mmHg 55%
    07:00 +21°C° 0 mm 4 mps 664 mmHg 50%
    08:00 +23°C° 0 mm 5 mps 665 mmHg 42%
    09:00 +26°C° 0 mm 5 mps 665 mmHg 37%
    10:00 +28°C° 0 mm 5 mps 665 mmHg 32%
    11:00 +30°C° 0 mm 5 mps 665 mmHg 27%
    12:00 +32°C° 0 mm 5 mps 665 mmHg 24%
    13:00 +33°C° 0 mm 5 mps 664 mmHg 21%
    14:00 +34°C° 0 mm 5 mps 663 mmHg 18%
    15:00 +34°C° 0 mm 5 mps 663 mmHg 19%
    16:00 +33°C° 0 mm 5 mps 663 mmHg 20%
    17:00 +33°C° 0 mm 5 mps 662 mmHg 20%
    18:00 +30°C° 0 mm 5 mps 662 mmHg 23%
    19:00 +27°C° 0 mm 5 mps 663 mmHg 27%
    20:00 +25°C° 0 mm 5 mps 663 mmHg 30%
    21:00 +23°C° 0 mm 5 mps 663 mmHg 29%
    22:00 +22°C° 0 mm 4 mps 663 mmHg 29%
    23:00 +21°C° 0 mm 4 mps 663 mmHg 28%

    Tomorrow, 18 September, Wednesday

    Time Temperature Precipitation Wind Pressure Humidity
    00:00 +20°C° 0 mm 4 mps 662 mmHg 30%
    01:00 +20°C° 0 mm 3 mps 662 mmHg 33%
    02:00 +19°C° 0 mm 3 mps 662 mmHg 35%
    03:00 +18°C° 0 mm 3 mps 662 mmHg 38%
    04:00 +17°C° 0 mm 3 mps 662 mmHg 41%
    05:00 +16°C° 0 mm 3 mps 662 mmHg 43%
    06:00 +18°C° 0 mm 3 mps 663 mmHg 42%
    07:00 +20°C° 0 mm 4 mps 664 mmHg 40%
    08:00 +22°C° 0 mm 5 mps 665 mmHg 38%
    09:00 +26°C° 0 mm 5 mps 665 mmHg 33%
    10:00 +28°C° 0 mm 4 mps 665 mmHg 28%
    11:00 +32°C° 0 mm 4 mps 666 mmHg 23%
    12:00 +33°C° 0 mm 4 mps 665 mmHg 21%
    13:00 +34°C° 0 mm 5 mps 664 mmHg 19%
    14:00 +35°C° 0 mm 5 mps 663 mmHg 17%
    15:00 +34°C° 0 mm 5 mps 663 mmHg 17%
    16:00 +33°C° 0 mm 5 mps 663 mmHg 17%
    17:00 +32°C° 0 mm 5 mps 662 mmHg 17%
    18:00 +29°C° 0 mm 4 mps 662 mmHg 20%
    19:00 +26°C° 0 mm 4 mps 663 mmHg 23%
    20:00 +24°C° 0 mm 3 mps 663 mmHg 26%
    21:00 +22°C° 0 mm 3 mps 663 mmHg 26%
    22:00 +21°C° 0 mm 3 mps 662 mmHg 27%
    23:00 +20°C° 0 mm 3 mps 662 mmHg 28%

    Day after tomorrow, 19 September, Thursday

    Time Temperature Precipitation Wind Pressure Humidity
    00:00 +19°C° 0 mm 3 mps 662 mmHg 29%
    01:00 +19°C° 0 mm 3 mps 662 mmHg 30%
    02:00 +18°C° 0 mm 4 mps 661 mmHg 31%
    03:00 +18°C° 0 mm 3 mps 662 mmHg 33%
    04:00 +18°C° 0 mm 3 mps 662 mmHg 35%
    05:00 +17°C° 0 mm 3 mps 662 mmHg 36%
    06:00 +19°C° 0 mm 4 mps 663 mmHg 34%
    07:00 +21°C° 0 mm 4 mps 664 mmHg 32%
    08:00 +23°C° 0 mm 4 mps 665 mmHg 29%
    09:00 +26°C° 0 mm 4 mps 665 mmHg 26%
    10:00 +29°C° 0 mm 4 mps 665 mmHg 22%
    11:00 +32°C° 0 mm 4 mps 665 mmHg 19%
    12:00 +33°C° 0 mm 4 mps 665 mmHg 17%
    13:00 +34°C° 0 mm 4 mps 664 mmHg 16%
    14:00 +35°C° 0 mm 4 mps 663 mmHg 14%
    15:00 +34°C° 0 mm 5 mps 663 mmHg 15%
    16:00 +34°C° 0 mm 5 mps 663 mmHg 15%
    17:00 +33°C° 0 mm 5 mps 662 mmHg 16%
    18:00 +29°C° 0 mm 4 mps 662 mmHg 19%
    19:00 +27°C° 0 mm 4 mps 662 mmHg 22%
    20:00 +24°C° 0 mm 3 mps 662 mmHg 26%
    21:00 +23°C° 0 mm 4 mps 662 mmHg 25%
    22:00 +22°C° 0 mm 4 mps 663 mmHg 24%
    23:00 +21°C° 0 mm 4 mps 663 mmHg 23%

    20 September, Friday

    Time Temperature Precipitation Wind Pressure Humidity
    00:00 +21°C° 0 mm 4 mps 662 mmHg 26%
    01:00 +20°C° 0 mm 4 mps 662 mmHg 29%
    02:00 +19°C° 0 mm 4 mps 661 mmHg 31%
    03:00 +19°C° 0 mm 4 mps 662 mmHg 34%
    04:00 +18°C° 0 mm 3 mps 662 mmHg 36%
    05:00 +17°C° 0 mm 3 mps 662 mmHg 39%
    06:00 +19°C° 0 mm 4 mps 663 mmHg 36%
    07:00 +21°C° 0 mm 5 mps 664 mmHg 32%
    08:00 +23°C° 0 mm 5 mps 665 mmHg 29%
    09:00 +26°C° 0 mm 5 mps 665 mmHg 26%
    10:00 +29°C° 0 mm 5 mps 665 mmHg 23%
    11:00 +33°C° 0 mm 5 mps 665 mmHg 19%
    12:00 +33°C° 0 mm 5 mps 664 mmHg 18%
    13:00 +34°C° 0 mm 5 mps 664 mmHg 17%
    14:00 +35°C° 0 mm 5 mps 663 mmHg 15%
    15:00 +34°C° 0 mm 5 mps 663 mmHg 16%
    16:00 +34°C° 0 mm 5 mps 662 mmHg 17%
    17:00 +33°C° 0 mm 4 mps 662 mmHg 18%
    18:00 +29°C° 0 mm 4 mps 662 mmHg 23%
    19:00 +27°C° 0 mm 4 mps 662 mmHg 28%
    20:00 +25°C° 0 mm 4 mps 662 mmHg 33%
    21:00 +23°C° 0 mm 4 mps 662 mmHg 34%
    22:00 +23°C° 0 mm 4 mps 662 mmHg 35%
    23:00 +22°C° 0 mm 5 mps 662 mmHg 36%

    21 September, Saturday

    Time Temperature Precipitation Wind Pressure Humidity
    00:00 +21°C° 0 mm 4 mps 662 mmHg 39%
    01:00 +21°C° 0 mm 4 mps 661 mmHg 41%
    02:00 +20°C° 0 mm 4 mps 661 mmHg 44%
    03:00 +19°C° 0 mm 4 mps 661 mmHg 46%
    04:00 +19°C° 0 mm 3 mps 661 mmHg 47%
    05:00 +18°C° 0 mm 3 mps 661 mmHg 49%
    06:00 +20°C° 0 mm 4 mps 662 mmHg 44%
    07:00 +22°C° 0 mm 4 mps 663 mmHg 40%
    08:00 +23°C° 0 mm 5 mps 664 mmHg 35%
    09:00 +27°C° 0 mm 4 mps 664 mmHg 30%
    10:00 +30°C° 0 mm 4 mps 664 mmHg 26%
    11:00 +33°C° 0 mm 4 mps 664 mmHg 21%
    12:00 +34°C° 0 mm 3 mps 663 mmHg 19%
    13:00 +36°C° 0 mm 3 mps 663 mmHg 16%
    14:00 +37°C° 0 mm 2 mps 662 mmHg 13%
    15:00 +36°C° 0 mm 3 mps 662 mmHg 14%
    16:00 +35°C° 0 mm 3 mps 661 mmHg 15%
    17:00 +34°C° 0 mm 4 mps 660 mmHg 16%
    18:00 +30°C° 0 mm 3 mps 660 mmHg 19%
    19:00 +28°C° 0 mm 3 mps 660 mmHg 22%
    20:00 +25°C° 0 mm 2 mps 660 mmHg 26%
    21:00 +24°C° 0 mm 3 mps 660 mmHg 30%
    22:00 +22°C° 0 mm 3 mps 661 mmHg 35%
    23:00 +22°C° 0 mm 3 mps 661 mmHg 39%

    22 September, Sunday

    Time Temperature Precipitation Wind Pressure Humidity
    00:00 +21°C° 0 mm 3 mps 660 mmHg 40%
    01:00 +21°C° 0 mm 3 mps 660 mmHg 40%
    02:00 +20°C° 0 mm 3 mps 660 mmHg 41%
    03:00 +19°C° 0 mm 3 mps 660 mmHg 44%
    04:00 +19°C° 0 mm 3 mps 660 mmHg 48%
    05:00 +18°C° 0 mm 3 mps 660 mmHg 51%
    06:00 +20°C° 0 mm 3 mps 661 mmHg 45%
    07:00 +23°C° 0 mm 4 mps 662 mmHg 40%
    08:00 +26°C° 0 mm 5 mps 662 mmHg 34%
    09:00 +29°C° 0 mm 4 mps 663 mmHg 29%
    10:00 +33°C° 0 mm 4 mps 663 mmHg 23%
    11:00 +35°C° 0 mm 3 mps 663 mmHg 18%
    12:00 +37°C° 0 mm 3 mps 663 mmHg 16%
    13:00 +38°C° 0 mm 3 mps 662 mmHg 13%
    14:00 +40°C° 0 mm 3 mps 662 mmHg 11%
    15:00 +38°C° 0 mm 3 mps 661 mmHg 12%
    16:00 +37°C° 0 mm 4 mps 661 mmHg 13%
    17:00 +36°C° 0 mm 4 mps 660 mmHg 14%
    18:00 +33°C° 0 mm 4 mps 660 mmHg 17%
    19:00 +29°C° 0 mm 3 mps 660 mmHg 20%
    20:00 +26°C° 0 mm 3 mps 660 mmHg 24%
    21:00 +26°C° 0 mm 3 mps 660 mmHg 25%
    22:00 +25°C° 0 mm 3 mps 660 mmHg 26%
    23:00 +24°C° 0 mm 3 mps 660 mmHg 28%
    Show more